Weather History for West Palm Beach, FL

Change the Weather History Date:

Friday, December 14, 2012

  Actual Average Record
Temperature  
Mean Temperature 72 °F 68 °F  
Max Temperature 80 °F 76 °F 87 °F (1920)
Min Temperature 63 °F 60 °F 32 °F (2010)
Degree Days  
Heating Degree Days 0 2  
Month to date heating degree days 0 18  
Since 1 July heating degree days 12 30  
Cooling Degree Days 7 5  
Month to date cooling degree days 144 79  
Year to date cooling degree days 4168 3945  
Growing Degree Days 22 (Base 50)    
Moisture  
Dew Point 62 °F    
Average Humidity 69    
Maximum Humidity 93    
Minimum Humidity 45    
Precipitation  
Precipitation 0.04 in 0.11 in 8.22 in (2006)
Month to date precipitation 1.12 1.49  
Year to date precipitation 78.72 60.44  
Snow  
Snow 0.00 in - - ()
Month to date snowfall 0.0  
Since 1 July snowfall 0.0  
Snow Depth 0.00 in    
Sea Level Pressure  
Sea Level Pressure 30.09 in    
Wind  
Wind Speed 10 mph (NNE)    
Max Wind Speed 20 mph    
Max Gust Speed 28 mph    
Visibility 10 miles    
Events Rain    
T = Trace of Precipitation, MM = Missing Value Source: NWS Daily Summary

Daily Weather History Graph

Daily Weather History Graph

Search for Another Location

Airport:

Trip Planner

Search our weather history database for the weather conditions in past years. The results will help you decide how hot, cold, wet, or windy it might be!

Date:

Astronomy

Dec. 14, 2012 Rise Set
Actual Time 7:01 AM EST 5:29 PM EST
Civil Twilight 6:35 AM EST 5:55 PM EST
Nautical Twilight 6:06 AM EST 6:24 PM EST
Astronomical Twilight 5:38 AM EST 6:52 PM EST
Moon 8:08 AM EST (12/14) 7:14 PM EST (12/14)
Length of Visible Light 11h 19m
Length of Day
10h 28m
Waxing Crescent, 3% of the Moon is Illuminated
Dec 14
Waxing Crescent
Dec 20
First Quarter
Dec 28
Full
Jan 4
Last Quarter
Jan 11
New

Hourly Weather History & Observations

Time (EST) Temp. Dew Point Humidity Pressure Visibility Wind Dir Wind Speed Gust Speed Precip Events Conditions
12:53 AM 64.9 °F 63.0 °F 93% 30.08 in 10.0 mi NW 6.9 mph - N/A   Scattered Clouds
1:53 AM 64.9 °F 63.0 °F 93% 30.07 in 10.0 mi North 10.4 mph - N/A   Partly Cloudy
2:53 AM 64.0 °F 62.1 °F 93% 30.06 in 10.0 mi NNW 6.9 mph - N/A   Partly Cloudy
3:53 AM 64.9 °F 63.0 °F 93% 30.06 in 10.0 mi NNW 8.1 mph - N/A   Scattered Clouds
4:53 AM 64.9 °F 63.0 °F 93% 30.06 in 10.0 mi NNW 8.1 mph - N/A   Mostly Cloudy
5:53 AM 64.9 °F 63.0 °F 93% 30.08 in 10.0 mi NNW 6.9 mph - 0.00 in   Mostly Cloudy
6:53 AM 64.0 °F 62.1 °F 93% 30.09 in 10.0 mi NNW 3.5 mph - 0.00 in Rain Light Rain
7:06 AM 64.4 °F 62.6 °F 94% 30.09 in 10.0 mi WNW 4.6 mph - 0.00 in Rain Light Rain
7:41 AM 64.4 °F 62.6 °F 94% 30.09 in 10.0 mi NNW 6.9 mph - 0.00 in   Mostly Cloudy
7:53 AM 64.0 °F 62.1 °F 93% 30.10 in 10.0 mi Calm Calm - 0.00 in   Mostly Cloudy
8:53 AM 66.9 °F 64.0 °F 90% 30.12 in 10.0 mi NNW 4.6 mph - N/A   Mostly Cloudy
9:53 AM 75.0 °F 63.0 °F 66% 30.13 in 10.0 mi NE 11.5 mph - 0.01 in   Mostly Cloudy
10:53 AM 75.0 °F 60.1 °F 60% 30.13 in 10.0 mi NNE 11.5 mph - 0.00 in   Mostly Cloudy
11:53 AM 79.0 °F 59.0 °F 50% 30.12 in 10.0 mi NNE 15.0 mph - N/A   Mostly Cloudy
12:53 PM 79.0 °F 55.9 °F 45% 30.09 in 10.0 mi NE 15.0 mph - N/A   Mostly Cloudy
1:53 PM 79.0 °F 55.9 °F 45% 30.08 in 10.0 mi NNE 15.0 mph - N/A   Scattered Clouds
2:53 PM 79.0 °F 57.0 °F 47% 30.07 in 10.0 mi North 18.4 mph 27.6 mph N/A   Scattered Clouds
3:53 PM 75.9 °F 62.1 °F 62% 30.06 in 10.0 mi NE 16.1 mph 23.0 mph N/A   Scattered Clouds
4:53 PM 75.9 °F 62.1 °F 62% 30.06 in 10.0 mi NE 11.5 mph - N/A   Scattered Clouds
5:53 PM 75.0 °F 57.9 °F 55% 30.06 in 10.0 mi NE 9.2 mph - N/A   Scattered Clouds
6:53 PM 73.9 °F 61.0 °F 64% 30.08 in 10.0 mi NE 9.2 mph - 0.00 in   Scattered Clouds
7:53 PM 73.9 °F 62.1 °F 66% 30.09 in 10.0 mi ENE 8.1 mph - N/A   Partly Cloudy
8:53 PM 72.0 °F 64.0 °F 76% 30.08 in 10.0 mi ENE 10.4 mph - 0.00 in   Mostly Cloudy
9:53 PM 73.0 °F 66.0 °F 79% 30.09 in 10.0 mi NE 8.1 mph - 0.01 in Rain Light Rain
10:53 PM 70.0 °F 64.0 °F 81% 30.09 in 10.0 mi NE 8.1 mph - 0.02 in Rain Light Rain
11:53 PM 71.1 °F 66.0 °F 84% 30.09 in 10.0 mi North 5.8 mph - 0.00 in Rain Light Rain